Time,TemperatureF,DewpointF,PressureIn,WindDirection,WindDirectionDegrees,WindSpeedMPH,WindSpeedGustMPH,Humidity,HourlyPrecipIn,Conditions,Clouds,dailyrainin,SoftwareType,DateUTC
2013-10-08 00:00:00,67.7,25.2,29.81,WSW,243,0.0,2.0,20,0.00,,---,0.00,VWS V14.01,2013-10-08 07:00:00,
2013-10-08 00:05:00,67.7,25.2,29.81,WSW,243,0.0,0.0,20,0.00,,---,0.00,VWS V14.01,2013-10-08 07:05:00,
2013-10-08 00:10:00,67.7,25.2,29.81,WSW,243,0.0,0.0,20,0.00,,---,0.00,VWS V14.01,2013-10-08 07:10:00,
2013-10-08 00:15:00,67.7,25.2,29.82,WSW,243,0.0,0.0,20,0.00,,---,0.00,VWS V14.01,2013-10-08 07:15:00,
2013-10-08 00:20:00,67.3,26.1,29.82,NNW,347,0.0,0.0,21,0.00,,---,0.00,VWS V14.01,2013-10-08 07:20:00,
2013-10-08 00:25:00,66.2,26.3,29.82,NE,34,1.0,2.0,22,0.00,,---,0.00,VWS V14.01,2013-10-08 07:25:00,
2013-10-08 00:30:00,65.0,26.3,29.81,NE,46,0.0,0.0,23,0.00,,---,0.00,VWS V14.01,2013-10-08 07:30:00,
2013-10-08 00:36:00,64.2,25.7,29.82,NE,46,1.0,1.0,23,0.00,,---,0.00,VWS V14.01,2013-10-08 07:36:00,
2013-10-08 00:41:00,63.5,26.1,29.82,NE,44,0.0,2.0,24,0.00,,---,0.00,VWS V14.01,2013-10-08 07:41:00,
2013-10-08 00:46:00,63.3,25.9,29.82,NNE,30,1.0,2.0,24,0.00,,---,0.00,VWS V14.01,2013-10-08 07:46:00,
2013-10-08 00:51:00,63.3,25.9,29.82,NE,35,0.0,2.0,24,0.00,,---,0.00,VWS V14.01,2013-10-08 07:51:00,
2013-10-08 00:56:00,63.3,25.9,29.82,NNE,26,0.0,2.0,24,0.00,,---,0.00,VWS V14.01,2013-10-08 07:56:00,
2013-10-08 01:00:00,63.3,25.9,29.82,NNE,23,2.0,2.0,24,0.00,,---,0.00,VWS V15.00,2013-10-08 08:00:00,
2013-10-08 01:01:00,63.2,25.8,29.82,NNE,22,2.0,2.0,24,0.00,,---,0.00,VWS V14.01,2013-10-08 08:01:00,
2013-10-08 01:06:00,63.0,25.7,29.82,NNE,29,1.0,2.0,24,0.00,,---,0.00,VWS V14.01,2013-10-08 08:06:00,
2013-10-08 01:11:00,63.3,24.9,29.82,NNE,16,1.0,2.0,23,0.00,,---,0.00,VWS V14.01,2013-10-08 08:11:00,
2013-10-08 01:16:00,63.7,25.2,29.82,NNE,15,1.0,2.0,23,0.00,,---,0.00,VWS V14.01,2013-10-08 08:16:00,
2013-10-08 01:21:00,63.9,26.4,29.82,NNE,15,1.0,2.0,24,0.00,,---,0.00,VWS V14.01,2013-10-08 08:21:00,
2013-10-08 01:26:00,64.4,25.8,29.82,NNE,15,0.0,2.0,23,0.00,,---,0.00,VWS V14.01,2013-10-08 08:26:00,
2013-10-08 01:30:00,65.3,26.6,29.82,NNE,19,1.0,2.0,23,0.00,,---,0.00,VWS V15.00,2013-10-08 08:30:00,
2013-10-08 01:31:00,65.5,26.8,29.82,NNE,32,2.0,2.0,23,0.00,,---,0.00,VWS V14.01,2013-10-08 08:31:00,
2013-10-08 01:36:00,65.6,25.8,29.82,NNE,13,2.0,2.0,22,0.00,,---,0.00,VWS V14.01,2013-10-08 08:36:00,
2013-10-08 01:41:00,65.5,25.7,29.82,NNE,23,1.0,3.0,22,0.00,,---,0.00,VWS V14.01,2013-10-08 08:41:00,
2013-10-08 01:46:00,65.2,25.4,29.82,NNE,16,2.0,3.0,22,0.00,,---,0.00,VWS V14.01,2013-10-08 08:46:00,
2013-10-08 01:51:00,65.0,25.3,29.82,NNE,23,2.0,3.0,22,0.00,,---,0.00,VWS V14.01,2013-10-08 08:51:00,
2013-10-08 01:57:00,64.9,25.2,29.81,NE,43,2.0,4.0,22,0.00,,---,0.00,VWS V14.01,2013-10-08 08:57:00,
2013-10-08 02:00:00,65.0,25.3,29.81,NNE,29,1.0,4.0,22,0.00,,---,0.00,VWS V15.00,2013-10-08 09:00:00,
2013-10-08 02:02:00,65.0,25.3,29.81,NE,34,1.0,3.0,22,0.00,,---,0.00,VWS V14.01,2013-10-08 09:02:00,
2013-10-08 02:07:00,65.0,25.3,29.81,NE,41,2.0,4.0,22,0.00,,---,0.00,VWS V14.01,2013-10-08 09:07:00,
2013-10-08 02:12:00,64.8,25.1,29.81,NE,37,2.0,4.0,22,0.00,,---,0.00,VWS V14.01,2013-10-08 09:12:00,
2013-10-08 02:17:00,64.6,24.9,29.80,NNE,29,3.0,4.0,22,0.00,,---,0.00,VWS V14.01,2013-10-08 09:17:00,
2013-10-08 02:22:00,64.4,25.8,29.80,ENE,57,2.0,4.0,23,0.00,,---,0.00,VWS V14.01,2013-10-08 09:22:00,
2013-10-08 02:27:00,63.9,25.4,29.80,NNE,24,3.0,4.0,23,0.00,,---,0.00,VWS V14.01,2013-10-08 09:27:00,
2013-10-08 02:30:00,63.6,25.1,29.80,NE,37,2.0,4.0,23,0.00,,---,0.00,VWS V15.00,2013-10-08 09:30:00,
2013-10-08 02:32:00,63.5,25.1,29.80,NNE,26,5.0,6.0,23,0.00,,---,0.00,VWS V14.01,2013-10-08 09:32:00,
2013-10-08 02:37:00,63.9,25.4,29.80,NNE,18,2.0,6.0,23,0.00,,---,0.00,VWS V14.01,2013-10-08 09:37:00,
2013-10-08 02:42:00,64.2,25.7,29.80,NNW,342,1.0,6.0,23,0.00,,---,0.00,VWS V14.01,2013-10-08 09:42:00,
2013-10-08 02:47:00,64.2,25.7,29.80,NNW,336,1.0,6.0,23,0.00,,---,0.00,VWS V14.01,2013-10-08 09:47:00,
2013-10-08 02:52:00,64.3,25.7,29.80,North,354,1.0,6.0,23,0.00,,---,0.00,VWS V14.01,2013-10-08 09:52:00,
2013-10-08 02:57:00,64.4,25.8,29.79,NNE,25,3.0,6.0,23,0.00,,---,0.00,VWS V14.01,2013-10-08 09:57:00,
2013-10-08 03:00:00,64.7,25.0,29.79,NNW,340,2.0,6.0,22,0.00,,---,0.00,VWS V15.00,2013-10-08 10:00:00,
2013-10-08 03:02:00,64.8,25.1,29.79,NNE,22,1.0,2.0,22,0.00,,---,0.00,VWS V14.01,2013-10-08 10:02:00,
2013-10-08 03:07:00,64.8,25.1,29.79,North,1,1.0,2.0,22,0.00,,---,0.00,VWS V14.01,2013-10-08 10:07:00,
2013-10-08 03:12:00,64.8,25.1,29.79,North,1,1.0,2.0,22,0.00,,---,0.00,VWS V14.01,2013-10-08 10:12:00,
2013-10-08 03:17:00,64.8,25.1,29.79,NNE,15,2.0,3.0,22,0.00,,---,0.00,VWS V14.01,2013-10-08 10:17:00,
2013-10-08 03:22:00,65.4,25.6,29.79,NNE,22,1.0,3.0,22,0.00,,---,0.00,VWS V14.01,2013-10-08 10:22:00,
2013-10-08 03:28:00,65.5,25.7,29.79,NNE,20,1.0,3.0,22,0.00,,---,0.00,VWS V14.01,2013-10-08 10:28:00,
2013-10-08 03:30:00,65.3,25.5,29.79,NNE,20,1.0,3.0,22,0.00,,---,0.00,VWS V15.00,2013-10-08 10:30:00,
2013-10-08 03:33:00,65.2,25.4,29.78,NNE,20,1.0,2.0,22,0.00,,---,0.00,VWS V14.01,2013-10-08 10:33:00,
2013-10-08 03:38:00,64.7,25.0,29.78,NNE,20,0.0,2.0,22,0.00,,---,0.00,VWS V14.01,2013-10-08 10:38:00,
2013-10-08 03:43:00,64.2,25.7,29.79,NNE,20,0.0,2.0,23,0.00,,---,0.00,VWS V14.01,2013-10-08 10:43:00,
2013-10-08 03:48:00,63.6,25.1,29.79,NNE,33,2.0,2.0,23,0.00,,---,0.00,VWS V14.01,2013-10-08 10:48:00,
2013-10-08 03:53:00,62.8,25.5,29.79,NE,56,2.0,2.0,24,0.00,,---,0.00,VWS V14.01,2013-10-08 10:53:00,
2013-10-08 03:58:00,61.7,25.5,29.79,NE,50,0.0,2.0,25,0.00,,---,0.00,VWS V14.01,2013-10-08 10:58:00,
2013-10-08 04:00:00,61.3,26.1,29.79,NE,50,0.0,2.0,26,0.00,,---,0.00,VWS V15.00,2013-10-08 11:00:00,
2013-10-08 04:03:00,60.8,26.6,29.79,NE,48,0.0,1.0,27,0.00,,---,0.00,VWS V14.01,2013-10-08 11:03:00,
2013-10-08 04:08:00,60.0,26.8,29.79,NE,37,0.0,2.0,28,0.00,,---,0.00,VWS V14.01,2013-10-08 11:08:00,
2013-10-08 04:13:00,59.3,26.2,29.79,NNE,33,2.0,3.0,28,0.00,,---,0.00,VWS V14.01,2013-10-08 11:13:00,
2013-10-08 04:18:00,58.6,26.5,29.79,NNE,16,0.0,3.0,29,0.00,,---,0.00,VWS V14.01,2013-10-08 11:18:00,
2013-10-08 04:23:00,57.9,26.7,29.79,North,9,1.0,3.0,30,0.00,,---,0.00,VWS V14.01,2013-10-08 11:23:00,
2013-10-08 04:28:00,57.4,26.2,29.79,North,355,0.0,3.0,30,0.00,,---,0.00,VWS V14.01,2013-10-08 11:28:00,
2013-10-08 04:30:00,57.3,26.2,29.79,North,355,0.0,3.0,30,0.00,,---,0.00,VWS V15.00,2013-10-08 11:30:00,
2013-10-08 04:33:00,57.1,26.8,29.79,North,4,0.0,1.0,31,0.00,,---,0.00,VWS V14.01,2013-10-08 11:33:00,
2013-10-08 04:38:00,57.4,26.2,29.78,North,358,1.0,2.0,30,0.00,,---,0.00,VWS V14.01,2013-10-08 11:38:00,
2013-10-08 04:43:00,58.3,26.2,29.78,NNE,29,2.0,2.0,29,0.00,,---,0.00,VWS V14.01,2013-10-08 11:43:00,
2013-10-08 04:48:00,58.7,26.5,29.78,North,9,1.0,2.0,29,0.00,,---,0.00,VWS V14.01,2013-10-08 11:48:00,
2013-10-08 04:53:00,59.1,26.9,29.78,NNE,18,1.0,2.0,29,0.00,,---,0.00,VWS V14.01,2013-10-08 11:53:00,
2013-10-08 04:59:00,59.3,27.1,29.79,NNE,14,1.0,2.0,29,0.00,,---,0.00,VWS V14.01,2013-10-08 11:59:00,
2013-10-08 05:00:00,59.4,27.2,29.79,NNE,12,1.0,2.0,29,0.00,,---,0.00,VWS V15.00,2013-10-08 12:00:00,
2013-10-08 05:04:00,59.8,27.5,29.79,NNE,29,0.0,2.0,29,0.00,,---,0.00,VWS V14.01,2013-10-08 12:04:00,
2013-10-08 05:09:00,59.6,27.3,29.78,NNE,29,0.0,2.0,29,0.00,,---,0.00,VWS V14.01,2013-10-08 12:09:00,
2013-10-08 05:14:00,59.3,27.1,29.79,NE,46,1.0,2.0,29,0.00,,---,0.00,VWS V14.01,2013-10-08 12:14:00,
2013-10-08 05:19:00,58.6,25.6,29.79,NE,40,3.0,5.0,28,0.00,,---,0.00,VWS V14.01,2013-10-08 12:19:00,
2013-10-08 05:24:00,58.0,25.1,29.79,NE,46,2.0,5.0,28,0.00,,---,0.00,VWS V14.01,2013-10-08 12:24:00,
2013-10-08 05:29:00,57.8,24.9,29.79,NE,47,3.0,5.0,28,0.00,,---,0.00,VWS V14.01,2013-10-08 12:29:00,
2013-10-08 05:30:00,57.7,24.8,29.79,NE,49,3.0,5.0,28,0.00,,---,0.00,VWS V15.00,2013-10-08 12:30:00,
2013-10-08 05:34:00,57.9,25.0,29.79,NE,37,4.0,4.0,28,0.00,,---,0.00,VWS V14.01,2013-10-08 12:34:00,
2013-10-08 05:39:00,58.6,24.8,29.79,NNE,19,4.0,5.0,27,0.00,,---,0.00,VWS V14.01,2013-10-08 12:39:00,
2013-10-08 05:44:00,59.7,24.8,29.79,NNE,26,2.0,6.0,26,0.00,,---,0.00,VWS V14.01,2013-10-08 12:44:00,
2013-10-08 05:49:00,60.1,25.1,29.79,NNE,30,2.0,6.0,26,0.00,,---,0.00,VWS V14.01,2013-10-08 12:49:00,
2013-10-08 05:54:00,60.0,25.0,29.79,North,5,3.0,6.0,26,0.00,,---,0.00,VWS V14.01,2013-10-08 12:54:00,
2013-10-08 05:59:00,59.9,25.0,29.79,North,7,2.0,6.0,26,0.00,,---,0.00,VWS V14.01,2013-10-08 12:59:00,
2013-10-08 06:00:00,59.9,25.0,29.79,North,1,1.0,6.0,26,0.00,,---,0.00,VWS V15.00,2013-10-08 13:00:00,
2013-10-08 06:04:00,60.1,25.1,29.79,NNE,18,1.0,3.0,26,0.00,,---,0.00,VWS V14.01,2013-10-08 13:04:00,
2013-10-08 06:09:00,60.5,25.5,29.79,NNE,27,1.0,4.0,26,0.00,,---,0.00,VWS V14.01,2013-10-08 13:09:00,
2013-10-08 06:14:00,61.2,26.1,29.79,NE,34,2.0,4.0,26,0.00,,---,0.00,VWS V14.01,2013-10-08 13:14:00,
2013-10-08 06:19:00,61.7,25.5,29.78,NNE,23,1.0,4.0,25,0.00,,---,0.00,VWS V14.01,2013-10-08 13:19:00,
2013-10-08 06:24:00,61.8,24.6,29.79,NE,34,1.0,4.0,24,0.00,,---,0.00,VWS V14.01,2013-10-08 13:24:00,
2013-10-08 06:30:00,61.8,25.6,29.79,NE,36,0.0,4.0,25,0.00,,---,0.00,VWS V14.01,2013-10-08 13:30:00,
2013-10-08 06:35:00,61.5,25.4,29.79,NE,39,2.0,2.0,25,0.00,,---,0.00,VWS V14.01,2013-10-08 13:35:00,
2013-10-08 06:40:00,61.0,25.0,29.79,NE,47,0.0,2.0,25,0.00,,---,0.00,VWS V14.01,2013-10-08 13:40:00,
2013-10-08 06:45:00,60.5,25.5,29.79,NNE,22,1.0,2.0,26,0.00,,---,0.00,VWS V14.01,2013-10-08 13:45:00,
2013-10-08 06:50:00,60.1,25.1,29.79,NE,49,1.0,2.0,26,0.00,,---,0.00,VWS V14.01,2013-10-08 13:50:00,
2013-10-08 06:55:00,59.7,25.7,29.79,NE,50,2.0,2.0,27,0.00,,---,0.00,VWS V14.01,2013-10-08 13:55:00,
2013-10-08 07:00:00,59.5,26.4,29.79,NE,46,0.0,2.0,28,0.00,,---,0.00,VWS V14.01,2013-10-08 14:00:00,
2013-10-08 07:05:00,59.5,27.2,29.80,NE,46,0.0,0.0,29,0.00,,---,0.00,VWS V14.01,2013-10-08 14:05:00,
2013-10-08 07:10:00,59.8,27.5,29.80,NE,44,1.0,2.0,29,0.00,,---,0.00,VWS V14.01,2013-10-08 14:10:00,
2013-10-08 07:15:00,60.1,27.8,29.80,NE,44,0.0,2.0,29,0.00,,---,0.00,VWS V14.01,2013-10-08 14:15:00,
2013-10-08 07:20:00,60.6,28.2,29.80,NE,44,0.0,2.0,29,0.00,,---,0.00,VWS V14.01,2013-10-08 14:20:00,
2013-10-08 07:25:00,61.0,29.4,29.81,NE,44,0.0,2.0,30,0.00,,---,0.00,VWS V14.01,2013-10-08 14:25:00,
2013-10-08 07:30:00,61.4,29.7,29.81,NE,44,2.0,2.0,30,0.00,,---,0.00,VWS V14.01,2013-10-08 14:30:00,
2013-10-08 07:35:00,61.7,30.0,29.81,NE,44,1.0,2.0,30,0.00,,---,0.00,VWS V14.01,2013-10-08 14:35:00,
2013-10-08 07:40:00,62.3,29.7,29.81,NE,44,1.0,2.0,29,0.00,,---,0.00,VWS V14.01,2013-10-08 14:40:00,
2013-10-08 07:45:00,62.9,30.2,29.81,NE,41,0.0,2.0,29,0.00,,---,0.00,VWS V14.01,2013-10-08 14:45:00,
2013-10-08 07:50:00,63.8,31.0,29.81,NE,41,0.0,2.0,29,0.00,,---,0.00,VWS V14.01,2013-10-08 14:50:00,
2013-10-08 07:55:00,64.7,30.9,29.81,NE,41,0.0,2.0,28,0.00,,---,0.00,VWS V14.01,2013-10-08 14:55:00,
2013-10-08 08:00:00,65.9,31.0,29.81,NE,41,0.0,2.0,27,0.00,,---,0.00,VWS V15.00,2013-10-08 15:00:00,
2013-10-08 08:01:00,66.0,31.1,29.81,NE,41,0.0,0.0,27,0.00,,---,0.00,VWS V14.01,2013-10-08 15:01:00,
2013-10-08 08:06:00,67.7,31.6,29.82,NE,41,0.0,0.0,26,0.00,,---,0.00,VWS V14.01,2013-10-08 15:06:00,
2013-10-08 08:11:00,68.7,31.5,29.81,NE,41,0.0,1.0,25,0.00,,---,0.00,VWS V14.01,2013-10-08 15:11:00,
2013-10-08 08:16:00,69.6,31.2,29.82,NE,43,0.0,1.0,24,0.00,,---,0.00,VWS V14.01,2013-10-08 15:16:00,
2013-10-08 08:21:00,70.7,31.1,29.81,NE,43,0.0,1.0,23,0.00,,---,0.00,VWS V14.01,2013-10-08 15:21:00,
2013-10-08 08:26:00,71.2,31.5,29.81,NE,43,0.0,1.0,23,0.00,,---,0.00,VWS V14.01,2013-10-08 15:26:00,
2013-10-08 08:30:00,72.0,32.2,29.82,NE,42,0.0,1.0,23,0.00,,---,0.00,VWS V15.00,2013-10-08 15:30:00,
2013-10-08 08:31:00,72.1,32.3,29.81,NE,43,0.0,0.0,23,0.00,,---,0.00,VWS V14.01,2013-10-08 15:31:00,
2013-10-08 08:36:00,73.0,32.0,29.81,NE,43,0.0,0.0,22,0.00,,---,0.00,VWS V14.01,2013-10-08 15:36:00,
2013-10-08 08:41:00,73.7,31.4,29.82,NE,43,0.0,0.0,21,0.00,,---,0.00,VWS V14.01,2013-10-08 15:41:00,
2013-10-08 08:46:00,74.7,31.0,29.81,NE,47,0.0,0.0,20,0.00,,---,0.00,VWS V14.01,2013-10-08 15:46:00,
2013-10-08 08:51:00,75.9,30.7,29.81,SW,222,0.0,3.0,19,0.00,,---,0.00,VWS V14.01,2013-10-08 15:51:00,
2013-10-08 08:56:00,75.9,30.7,29.81,SW,228,1.0,3.0,19,0.00,,---,0.00,VWS V14.01,2013-10-08 15:56:00,
2013-10-08 09:00:00,75.8,30.6,29.81,SSW,208,0.0,4.0,19,0.00,,---,0.00,VWS V15.00,2013-10-08 16:00:00,
2013-10-08 09:01:00,75.8,30.6,29.81,SSW,210,2.0,4.0,19,0.00,,---,0.00,VWS V14.01,2013-10-08 16:01:00,
2013-10-08 09:06:00,76.0,30.8,29.81,South,186,3.0,4.0,19,0.00,,---,0.00,VWS V14.01,2013-10-08 16:06:00,
2013-10-08 09:11:00,76.6,31.3,29.81,SW,229,3.0,4.0,19,0.00,,---,0.00,VWS V14.01,2013-10-08 16:11:00,
2013-10-08 09:16:00,76.6,31.3,29.81,SW,231,4.0,5.0,19,0.00,,---,0.00,VWS V14.01,2013-10-08 16:16:00,
2013-10-08 09:22:00,77.0,31.6,29.81,SW,235,2.0,5.0,19,0.00,,---,0.00,VWS V14.01,2013-10-08 16:22:00,
2013-10-08 09:27:00,77.5,32.0,29.81,SSW,198,3.0,5.0,19,0.00,,---,0.00,VWS V14.01,2013-10-08 16:27:00,
2013-10-08 09:30:00,77.8,32.3,29.81,SW,224,3.0,6.0,19,0.00,,---,0.00,VWS V15.00,2013-10-08 16:30:00,
2013-10-08 09:32:00,78.0,31.1,29.81,SSW,211,1.0,4.0,18,0.00,,---,0.00,VWS V14.01,2013-10-08 16:32:00,
2013-10-08 09:37:00,78.7,31.7,29.81,SSE,156,2.0,4.0,18,0.00,,---,0.00,VWS V14.01,2013-10-08 16:37:00,
2013-10-08 09:42:00,79.5,32.3,29.80,SW,236,0.0,7.0,18,0.00,,---,0.00,VWS V14.01,2013-10-08 16:42:00,
2013-10-08 09:47:00,80.3,33.0,29.80,SSE,154,2.0,7.0,18,0.00,,---,0.00,VWS V14.01,2013-10-08 16:47:00,
2013-10-08 09:52:00,81.3,32.4,29.80,SSE,160,5.0,7.0,17,0.00,,---,0.00,VWS V14.01,2013-10-08 16:52:00,
2013-10-08 09:57:00,81.5,31.0,29.80,WSW,246,5.0,10.0,16,0.00,,---,0.00,VWS V14.01,2013-10-08 16:57:00,
2013-10-08 10:00:00,81.6,29.5,29.80,SW,229,5.0,10.0,15,0.00,,---,0.00,VWS V15.00,2013-10-08 17:00:00,
2013-10-08 10:02:00,81.7,29.6,29.80,SE,129,3.0,8.0,15,0.00,,---,0.00,VWS V14.01,2013-10-08 17:02:00,
2013-10-08 10:07:00,81.8,29.7,29.80,South,181,4.0,9.0,15,0.00,,---,0.00,VWS V14.01,2013-10-08 17:07:00,
2013-10-08 10:12:00,82.1,29.9,29.80,WSW,238,0.0,9.0,15,0.00,,---,0.00,VWS V14.01,2013-10-08 17:12:00,
2013-10-08 10:17:00,82.2,30.0,29.80,South,179,2.0,9.0,15,0.00,,---,0.00,VWS V14.01,2013-10-08 17:17:00,
2013-10-08 10:22:00,82.8,30.5,29.79,SW,217,2.0,9.0,15,0.00,,---,0.00,VWS V14.01,2013-10-08 17:22:00,
2013-10-08 10:27:00,83.4,31.0,29.79,SE,141,2.0,9.0,15,0.00,,---,0.00,VWS V14.01,2013-10-08 17:27:00,
2013-10-08 10:30:00,83.6,31.1,29.79,SW,219,7.0,9.0,15,0.00,,---,0.00,VWS V15.00,2013-10-08 17:30:00,
2013-10-08 10:32:00,83.4,31.0,29.79,South,183,5.0,8.0,15,0.00,,---,0.00,VWS V14.01,2013-10-08 17:32:00,
2013-10-08 10:37:00,83.3,30.9,29.79,West,267,2.0,8.0,15,0.00,,---,0.00,VWS V14.01,2013-10-08 17:37:00,
2013-10-08 10:42:00,83.1,30.7,29.79,West,259,4.0,11.0,15,0.00,,---,0.00,VWS V14.01,2013-10-08 17:42:00,
2013-10-08 10:47:00,83.3,30.9,29.79,South,189,8.0,11.0,15,0.00,,---,0.00,VWS V14.01,2013-10-08 17:47:00,
2013-10-08 10:52:00,83.6,31.1,29.79,SW,224,7.0,11.0,15,0.00,,---,0.00,VWS V14.01,2013-10-08 17:52:00,
2013-10-08 10:58:00,83.6,31.1,29.79,WSW,242,5.0,11.0,15,0.00,,---,0.00,VWS V14.01,2013-10-08 17:58:00,
2013-10-08 11:00:00,83.5,31.0,29.79,WSW,244,6.0,11.0,15,0.00,,---,0.00,VWS V15.00,2013-10-08 18:00:00,
2013-10-08 11:03:00,83.3,30.9,29.79,WSW,248,5.0,7.0,15,0.00,,---,0.00,VWS V14.01,2013-10-08 18:03:00,
2013-10-08 11:08:00,83.6,32.7,29.79,SSE,165,3.0,7.0,16,0.00,,---,0.00,VWS V14.01,2013-10-08 18:08:00,
2013-10-08 11:13:00,84.1,31.5,29.79,SW,219,7.0,9.0,15,0.00,,---,0.00,VWS V14.01,2013-10-08 18:13:00,
2013-10-08 11:18:00,84.1,31.5,29.78,SW,221,3.0,9.0,15,0.00,,---,0.00,VWS V14.01,2013-10-08 18:18:00,
2013-10-08 11:23:00,84.7,32.0,29.78,West,270,2.0,9.0,15,0.00,,---,0.00,VWS V14.01,2013-10-08 18:23:00,
2013-10-08 11:28:00,84.5,31.8,29.78,SW,236,4.0,9.0,15,0.00,,---,0.00,VWS V14.01,2013-10-08 18:28:00,
2013-10-08 11:30:00,84.6,31.9,29.78,SW,229,5.0,9.0,15,0.00,,---,0.00,VWS V15.00,2013-10-08 18:30:00,
2013-10-08 11:33:00,84.7,32.0,29.78,WSW,253,3.0,8.0,15,0.00,,---,0.00,VWS V14.01,2013-10-08 18:33:00,
2013-10-08 11:38:00,85.0,33.8,29.77,WSW,248,6.0,14.0,16,0.00,,---,0.00,VWS V14.01,2013-10-08 18:38:00,
2013-10-08 11:43:00,85.8,32.9,29.77,SW,219,4.0,14.0,15,0.00,,---,0.00,VWS V14.01,2013-10-08 18:43:00,
2013-10-08 11:48:00,86.0,33.0,29.77,SSE,167,3.0,14.0,15,0.00,,---,0.00,VWS V14.01,2013-10-08 18:48:00,
2013-10-08 11:53:00,86.1,33.1,29.77,SSE,151,3.0,14.0,15,0.00,,---,0.00,VWS V14.01,2013-10-08 18:53:00,
2013-10-08 11:58:00,86.3,33.3,29.76,South,186,8.0,14.0,15,0.00,,---,0.00,VWS V14.01,2013-10-08 18:58:00,
2013-10-08 12:00:00,86.2,33.2,29.76,South,184,6.0,14.0,15,0.00,,---,0.00,VWS V15.00,2013-10-08 19:00:00,
2013-10-08 12:03:00,86.3,33.3,29.76,SSE,165,5.0,11.0,15,0.00,,---,0.00,VWS V14.01,2013-10-08 19:03:00,
2013-10-08 12:08:00,86.3,31.5,29.75,SSW,208,8.0,11.0,14,0.00,,---,0.00,VWS V14.01,2013-10-08 19:08:00,
2013-10-08 12:13:00,86.1,31.4,29.75,West,262,5.0,12.0,14,0.00,,---,0.00,VWS V14.01,2013-10-08 19:13:00,
2013-10-08 12:18:00,86.2,33.2,29.75,ESE,120,0.0,12.0,15,0.00,,---,0.00,VWS V14.01,2013-10-08 19:18:00,
2013-10-08 12:24:00,86.7,31.9,29.75,South,174,4.0,12.0,14,0.00,,---,0.00,VWS V14.01,2013-10-08 19:24:00,
2013-10-08 12:29:00,86.5,31.7,29.74,WSW,255,1.0,12.0,14,0.00,,---,0.00,VWS V14.01,2013-10-08 19:29:00,
2013-10-08 12:30:00,86.5,31.7,29.74,SE,140,2.0,12.0,14,0.00,,---,0.00,VWS V15.00,2013-10-08 19:30:00,
2013-10-08 12:34:00,87.3,32.3,29.73,SSE,165,7.0,9.0,14,0.00,,---,0.00,VWS V14.01,2013-10-08 19:34:00,
2013-10-08 12:39:00,87.3,32.3,29.74,South,184,6.0,14.0,14,0.00,,---,0.00,VWS V14.01,2013-10-08 19:39:00,
2013-10-08 12:44:00,87.0,32.1,29.73,SSE,162,5.0,14.0,14,0.00,,---,0.00,VWS V14.01,2013-10-08 19:44:00,
2013-10-08 12:49:00,87.5,32.5,29.73,South,188,3.0,14.0,14,0.00,,---,0.00,VWS V14.01,2013-10-08 19:49:00,
2013-10-08 12:54:00,87.5,32.5,29.73,SSW,210,7.0,14.0,14,0.00,,---,0.00,VWS V14.01,2013-10-08 19:54:00,
2013-10-08 12:59:00,87.5,32.5,29.72,East,96,6.0,14.0,14,0.00,,---,0.00,VWS V14.01,2013-10-08 19:59:00,
2013-10-08 13:00:00,87.5,32.5,29.72,SW,218,5.0,14.0,14,0.00,,---,0.00,VWS V15.00,2013-10-08 20:00:00,
2013-10-08 13:04:00,87.5,30.7,29.72,WSW,243,9.0,9.0,13,0.00,,---,0.00,VWS V14.01,2013-10-08 20:04:00,
2013-10-08 13:09:00,87.4,30.6,29.72,WSW,254,8.0,14.0,13,0.00,,---,0.00,VWS V14.01,2013-10-08 20:09:00,
2013-10-08 13:14:00,87.2,32.3,29.72,SW,221,7.0,15.0,14,0.00,,---,0.00,VWS V14.01,2013-10-08 20:14:00,
2013-10-08 13:19:00,87.1,32.2,29.72,SE,132,7.0,15.0,14,0.00,,---,0.00,VWS V14.01,2013-10-08 20:19:00,
2013-10-08 13:24:00,87.3,32.3,29.71,SE,144,4.0,15.0,14,0.00,,---,0.00,VWS V14.01,2013-10-08 20:24:00,
2013-10-08 13:29:00,87.2,32.3,29.71,South,169,6.0,15.0,14,0.00,,---,0.00,VWS V14.01,2013-10-08 20:29:00,
2013-10-08 13:30:00,87.3,32.3,29.71,SW,226,8.0,15.0,14,0.00,,---,0.00,VWS V15.00,2013-10-08 20:30:00,
2013-10-08 13:34:00,87.1,32.2,29.71,WSW,248,13.0,14.0,14,0.00,,---,0.00,VWS V14.01,2013-10-08 20:34:00,
2013-10-08 13:39:00,86.7,30.0,29.71,WSW,243,9.0,17.0,13,0.00,,---,0.00,VWS V14.01,2013-10-08 20:39:00,
2013-10-08 13:45:00,86.9,32.0,29.71,SW,219,7.0,17.0,14,0.00,,---,0.00,VWS V14.01,2013-10-08 20:45:00,
2013-10-08 13:50:00,86.8,31.9,29.71,WSW,250,7.0,17.0,14,0.00,,---,0.00,VWS V14.01,2013-10-08 20:50:00,
2013-10-08 13:55:00,86.7,30.0,29.71,SW,229,4.0,17.0,13,0.00,,---,0.00,VWS V14.01,2013-10-08 20:55:00,
2013-10-08 14:00:00,86.9,32.0,29.70,SW,215,5.0,17.0,14,0.00,,---,0.00,VWS V14.01,2013-10-08 21:00:00,
2013-10-08 14:05:00,87.0,32.1,29.70,SW,221,6.0,13.0,14,0.00,,---,0.00,VWS V14.01,2013-10-08 21:05:00,
2013-10-08 14:10:00,87.2,30.4,29.70,WSW,240,4.0,13.0,13,0.00,,---,0.00,VWS V14.01,2013-10-08 21:10:00,
2013-10-08 14:15:00,87.4,30.6,29.70,West,267,6.0,13.0,13,0.00,,---,0.00,VWS V14.01,2013-10-08 21:15:00,
2013-10-08 14:20:00,87.7,30.8,29.70,SE,139,5.0,13.0,13,0.00,,---,0.00,VWS V14.01,2013-10-08 21:20:00,
2013-10-08 14:25:00,87.6,30.7,29.70,South,188,8.0,13.0,13,0.00,,---,0.00,VWS V14.01,2013-10-08 21:25:00,
2013-10-08 14:30:00,87.1,30.4,29.69,SW,226,5.0,7.0,13,0.00,,---,0.00,VWS V14.01,2013-10-08 21:30:00,
2013-10-08 14:35:00,87.3,30.5,29.70,West,262,10.0,13.0,13,0.00,,---,0.00,VWS V14.01,2013-10-08 21:35:00,
2013-10-08 14:40:00,87.4,30.6,29.70,West,259,1.0,13.0,13,0.00,,---,0.00,VWS V14.01,2013-10-08 21:40:00,
2013-10-08 14:45:00,87.5,30.7,29.70,SE,127,4.0,13.0,13,0.00,,---,0.00,VWS V14.01,2013-10-08 21:45:00,
2013-10-08 14:50:00,87.3,30.5,29.69,South,170,5.0,13.0,13,0.00,,---,0.00,VWS V14.01,2013-10-08 21:50:00,
2013-10-08 14:56:00,87.4,30.6,29.69,SW,221,6.0,13.0,13,0.00,,---,0.00,VWS V14.01,2013-10-08 21:56:00,
2013-10-08 15:00:00,87.5,30.7,29.69,SW,231,4.0,13.0,13,0.00,,---,0.00,VWS V15.00,2013-10-08 22:00:00,
2013-10-08 15:01:00,87.5,30.7,29.69,SW,221,4.0,5.0,13,0.00,,---,0.00,VWS V14.01,2013-10-08 22:01:00,
2013-10-08 15:06:00,87.2,30.4,29.69,SW,231,5.0,10.0,13,0.00,,---,0.00,VWS V14.01,2013-10-08 22:06:00,
2013-10-08 15:11:00,87.0,28.3,29.69,WSW,250,6.0,12.0,12,0.00,,---,0.00,VWS V14.01,2013-10-08 22:11:00,
2013-10-08 15:16:00,87.2,28.5,29.69,NNW,339,4.0,12.0,12,0.00,,---,0.00,VWS V14.01,2013-10-08 22:16:00,
2013-10-08 15:21:00,87.6,28.8,29.69,SSE,151,4.0,12.0,12,0.00,,---,0.00,VWS V14.01,2013-10-08 22:21:00,
2013-10-08 15:26:00,87.6,28.8,29.69,South,184,4.0,12.0,12,0.00,,---,0.00,VWS V14.01,2013-10-08 22:26:00,
2013-10-08 15:30:00,87.5,28.7,29.69,SW,221,3.0,12.0,12,0.00,,---,0.00,VWS V15.00,2013-10-08 22:30:00,
2013-10-08 15:31:00,87.5,28.7,29.69,WSW,243,4.0,6.0,12,0.00,,---,0.00,VWS V14.01,2013-10-08 22:31:00,
2013-10-08 15:36:00,87.3,28.5,29.69,WSW,242,4.0,9.0,12,0.00,,---,0.00,VWS V14.01,2013-10-08 22:36:00,
2013-10-08 15:41:00,87.2,28.5,29.68,SSW,207,4.0,9.0,12,0.00,,---,0.00,VWS V14.01,2013-10-08 22:41:00,
2013-10-08 15:46:00,87.0,28.3,29.68,SW,225,4.0,9.0,12,0.00,,---,0.00,VWS V14.01,2013-10-08 22:46:00,
2013-10-08 15:51:00,86.9,28.2,29.68,South,176,7.0,13.0,12,0.00,,---,0.00,VWS V14.01,2013-10-08 22:51:00,
2013-10-08 15:56:00,87.1,28.4,29.68,SW,217,9.0,13.0,12,0.00,,---,0.00,VWS V14.01,2013-10-08 22:56:00,
2013-10-08 16:00:00,86.9,28.2,29.68,West,278,4.0,13.0,12,0.00,,---,0.00,VWS V15.00,2013-10-08 23:00:00,
2013-10-08 16:01:00,86.9,28.2,29.68,SSW,203,4.0,11.0,12,0.00,,---,0.00,VWS V14.01,2013-10-08 23:01:00,
2013-10-08 16:07:00,87.2,26.4,29.68,SW,228,4.0,11.0,11,0.00,,---,0.00,VWS V14.01,2013-10-08 23:07:00,
2013-10-08 16:12:00,87.1,28.4,29.67,SSW,205,10.0,11.0,12,0.00,,---,0.00,VWS V14.01,2013-10-08 23:12:00,
2013-10-08 16:17:00,86.8,28.1,29.67,WSW,251,2.0,13.0,12,0.00,,---,0.00,VWS V14.01,2013-10-08 23:17:00,
2013-10-08 16:22:00,86.5,27.9,29.67,SW,219,5.0,13.0,12,0.00,,---,0.00,VWS V14.01,2013-10-08 23:22:00,
2013-10-08 16:27:00,86.5,27.9,29.67,South,169,8.0,13.0,12,0.00,,---,0.00,VWS V14.01,2013-10-08 23:27:00,
2013-10-08 16:30:00,86.4,27.8,29.67,WSW,245,2.0,13.0,12,0.00,,---,0.00,VWS V15.00,2013-10-08 23:30:00,
2013-10-08 16:32:00,86.6,28.0,29.67,SSE,148,3.0,3.0,12,0.00,,---,0.00,VWS V14.01,2013-10-08 23:32:00,
2013-10-08 16:37:00,86.7,28.1,29.67,SSW,213,2.0,10.0,12,0.00,,---,0.00,VWS V14.01,2013-10-08 23:37:00,
2013-10-08 16:42:00,86.1,25.5,29.67,SW,222,5.0,12.0,11,0.00,,---,0.00,VWS V14.01,2013-10-08 23:42:00,
2013-10-08 16:47:00,86.0,27.5,29.67,SW,236,3.0,12.0,12,0.00,,---,0.00,VWS V14.01,2013-10-08 23:47:00,
2013-10-08 16:52:00,85.9,25.4,29.67,WSW,248,6.0,12.0,11,0.00,,---,0.00,VWS V14.01,2013-10-08 23:52:00,
2013-10-08 16:57:00,85.5,25.0,29.67,SW,236,7.0,13.0,11,0.00,,---,0.00,VWS V14.01,2013-10-08 23:57:00,
2013-10-08 17:00:00,85.3,24.9,29.67,WSW,243,5.0,13.0,11,0.00,,---,0.00,VWS V15.00,2013-10-09 00:00:00,
2013-10-08 17:02:00,85.3,24.9,29.67,WSW,238,2.0,8.0,11,0.00,,---,0.00,VWS V14.01,2013-10-09 00:02:00,
2013-10-08 17:08:00,85.1,24.7,29.67,SW,236,5.0,10.0,11,0.00,,---,0.00,VWS V14.01,2013-10-09 00:08:00,
2013-10-08 17:13:00,84.9,24.6,29.67,SW,236,3.0,10.0,11,0.00,,---,0.00,VWS V14.01,2013-10-09 00:13:00,
2013-10-08 17:18:00,84.8,24.5,29.67,SW,228,6.0,10.0,11,0.00,,---,0.00,VWS V14.01,2013-10-09 00:18:00,
2013-10-08 17:23:00,84.7,24.4,29.67,SW,220,6.0,11.0,11,0.00,,---,0.00,VWS V14.01,2013-10-09 00:23:00,
2013-10-08 17:28:00,84.3,24.1,29.67,SW,226,4.0,11.0,11,0.00,,---,0.00,VWS V14.01,2013-10-09 00:28:00,
2013-10-08 17:30:00,84.1,24.0,29.67,West,262,5.0,11.0,11,0.00,,---,0.00,VWS V15.00,2013-10-09 00:30:00,
2013-10-08 17:33:00,83.9,23.8,29.67,WSW,238,5.0,10.0,11,0.00,,---,0.00,VWS V14.01,2013-10-09 00:33:00,
2013-10-08 17:38:00,83.5,25.6,29.67,WSW,238,6.0,13.0,12,0.00,,---,0.00,VWS V14.01,2013-10-09 00:38:00,
2013-10-08 17:43:00,83.0,25.2,29.67,WSW,252,4.0,13.0,12,0.00,,---,0.00,VWS V14.01,2013-10-09 00:43:00,
2013-10-08 17:48:00,82.4,24.7,29.67,WSW,256,3.0,13.0,12,0.00,,---,0.00,VWS V14.01,2013-10-09 00:48:00,
2013-10-08 17:53:00,81.7,24.2,29.67,West,262,3.0,13.0,12,0.00,,---,0.00,VWS V14.01,2013-10-09 00:53:00,
2013-10-08 17:58:00,81.2,25.7,29.67,WSW,249,2.0,13.0,13,0.00,,---,0.00,VWS V14.01,2013-10-09 00:58:00,
2013-10-08 18:00:00,81.0,25.6,29.67,WSW,246,1.0,13.0,13,0.00,,---,0.00,VWS V15.00,2013-10-09 01:00:00,
2013-10-08 18:03:00,80.7,25.3,29.67,WSW,245,3.0,5.0,13,0.00,,---,0.00,VWS V14.01,2013-10-09 01:03:00,
2013-10-08 18:08:00,80.2,25.0,29.67,SW,236,4.0,8.0,13,0.00,,---,0.00,VWS V14.01,2013-10-09 01:08:00,
2013-10-08 18:13:00,79.8,24.6,29.67,SW,235,4.0,8.0,13,0.00,,---,0.00,VWS V14.01,2013-10-09 01:13:00,
2013-10-08 18:18:00,79.7,24.5,29.67,WSW,239,4.0,9.0,13,0.00,,---,0.00,VWS V14.01,2013-10-09 01:18:00,
2013-10-08 18:24:00,79.4,24.3,29.67,WSW,252,3.0,9.0,13,0.00,,---,0.00,VWS V14.01,2013-10-09 01:24:00,
2013-10-08 18:29:00,78.9,25.7,29.67,WSW,253,5.0,9.0,14,0.00,,---,0.00,VWS V14.01,2013-10-09 01:29:00,
2013-10-08 18:30:00,78.7,25.5,29.67,SW,228,2.0,9.0,14,0.00,,---,0.00,VWS V15.00,2013-10-09 01:30:00,
2013-10-08 18:34:00,78.5,25.4,29.67,SW,221,1.0,4.0,14,0.00,,---,0.00,VWS V14.01,2013-10-09 01:34:00,
2013-10-08 18:39:00,78.0,25.0,29.67,WSW,240,2.0,4.0,14,0.00,,---,0.00,VWS V14.01,2013-10-09 01:39:00,
2013-10-08 18:44:00,77.4,26.2,29.67,WSW,243,0.0,4.0,15,0.00,,---,0.00,VWS V14.01,2013-10-09 01:44:00,
2013-10-08 18:49:00,77.0,25.9,29.67,SW,232,1.0,4.0,15,0.00,,---,0.00,VWS V14.01,2013-10-09 01:49:00,
2013-10-08 18:54:00,76.7,25.6,29.67,WSW,240,1.0,4.0,15,0.00,,---,0.00,VWS V14.01,2013-10-09 01:54:00,
2013-10-08 18:59:00,76.6,25.5,29.67,WSW,240,2.0,4.0,15,0.00,,---,0.00,VWS V14.01,2013-10-09 01:59:00,
2013-10-08 19:00:00,76.6,25.5,29.67,WSW,245,1.0,4.0,15,0.00,,---,0.00,VWS V15.00,2013-10-09 02:00:00,
2013-10-08 19:04:00,76.3,25.3,29.68,WSW,245,1.0,2.0,15,0.00,,---,0.00,VWS V14.01,2013-10-09 02:04:00,
2013-10-08 19:09:00,76.0,25.1,29.68,WSW,245,1.0,2.0,15,0.00,,---,0.00,VWS V14.01,2013-10-09 02:09:00,
2013-10-08 19:14:00,75.6,26.3,29.68,WSW,246,0.0,2.0,16,0.00,,---,0.00,VWS V14.01,2013-10-09 02:14:00,
2013-10-08 19:19:00,75.4,26.1,29.68,WSW,250,2.0,2.0,16,0.00,,---,0.00,VWS V14.01,2013-10-09 02:19:00,
2013-10-08 19:25:00,75.5,26.2,29.68,WSW,238,1.0,3.0,16,0.00,,---,0.00,VWS V14.01,2013-10-09 02:25:00,
2013-10-08 19:30:00,75.1,27.4,29.68,SW,235,0.0,3.0,17,0.00,,---,0.00,VWS V14.01,2013-10-09 02:30:00,
2013-10-08 19:35:00,74.8,27.1,29.68,SW,215,2.0,2.0,17,0.00,,---,0.00,VWS V14.01,2013-10-09 02:35:00,
2013-10-08 19:40:00,74.3,26.7,29.68,WSW,245,2.0,2.0,17,0.00,,---,0.00,VWS V14.01,2013-10-09 02:40:00,
2013-10-08 19:45:00,74.0,26.5,29.68,SW,215,0.0,2.0,17,0.00,,---,0.00,VWS V14.01,2013-10-09 02:45:00,
2013-10-08 19:50:00,73.6,27.5,29.68,SW,225,0.0,2.0,18,0.00,,---,0.00,VWS V14.01,2013-10-09 02:50:00,
2013-10-08 19:55:00,72.9,27.0,29.69,SW,225,0.0,2.0,18,0.00,,---,0.00,VWS V14.01,2013-10-09 02:55:00,
2013-10-08 20:00:00,72.2,27.7,29.69,SW,225,0.0,2.0,19,0.00,,---,0.00,VWS V14.01,2013-10-09 03:00:00,
2013-10-08 20:05:00,71.4,27.0,29.69,SW,225,0.0,0.0,19,0.00,,---,0.00,VWS V14.01,2013-10-09 03:05:00,
2013-10-08 20:10:00,70.8,26.5,29.69,SW,225,0.0,0.0,19,0.00,,---,0.00,VWS V14.01,2013-10-09 03:10:00,
2013-10-08 20:15:00,70.5,27.5,29.69,SW,225,0.0,0.0,20,0.00,,---,0.00,VWS V14.01,2013-10-09 03:15:00,
2013-10-08 20:20:00,70.7,27.7,29.69,SW,224,0.0,0.0,20,0.00,,---,0.00,VWS V14.01,2013-10-09 03:20:00,
2013-10-08 20:25:00,70.9,26.6,29.69,SW,225,0.0,1.0,19,0.00,,---,0.00,VWS V14.01,2013-10-09 03:25:00,
2013-10-08 20:30:00,71.0,26.7,29.69,SW,236,1.0,2.0,19,0.00,,---,0.00,VWS V14.01,2013-10-09 03:30:00,
2013-10-08 20:36:00,71.0,26.7,29.69,SSW,211,0.0,2.0,19,0.00,,---,0.00,VWS V14.01,2013-10-09 03:36:00,
2013-10-08 20:41:00,70.8,25.2,29.69,South,186,2.0,3.0,18,0.00,,---,0.00,VWS V14.01,2013-10-09 03:41:00,
2013-10-08 20:46:00,70.8,25.2,29.69,SSW,205,1.0,3.0,18,0.00,,---,0.00,VWS V14.01,2013-10-09 03:46:00,
2013-10-08 20:51:00,70.8,25.2,29.69,SSW,200,2.0,3.0,18,0.00,,---,0.00,VWS V14.01,2013-10-09 03:51:00,
2013-10-08 20:56:00,71.1,25.5,29.69,SW,229,4.0,4.0,18,0.00,,---,0.00,VWS V14.01,2013-10-09 03:56:00,
2013-10-08 21:00:00,71.6,25.9,29.70,South,174,4.0,5.0,18,0.00,,---,0.00,VWS V15.00,2013-10-09 04:00:00,
2013-10-08 21:01:00,71.6,25.9,29.70,South,191,4.0,4.0,18,0.00,,---,0.00,VWS V14.01,2013-10-09 04:01:00,
2013-10-08 21:03:00,71.9,26.1,29.70,SW,222,1.0,5.0,18,0.00,,---,0.00,VWS V14.01,2013-10-09 04:03:00,
2013-10-08 21:08:00,72.0,26.2,29.70,SSW,198,1.0,6.0,18,0.00,,---,0.00,VWS V14.01,2013-10-09 04:08:00,
2013-10-08 21:13:00,72.3,26.5,29.70,West,262,1.0,6.0,18,0.00,,---,0.00,VWS V14.01,2013-10-09 04:13:00,
2013-10-08 21:18:00,72.6,26.7,29.70,SSW,201,2.0,6.0,18,0.00,,---,0.00,VWS V14.01,2013-10-09 04:18:00,
2013-10-08 21:23:00,72.5,26.6,29.70,West,262,2.0,6.0,18,0.00,,---,0.00,VWS V14.01,2013-10-09 04:23:00,
2013-10-08 21:28:00,72.5,26.6,29.70,SW,229,2.0,6.0,18,0.00,,---,0.00,VWS V14.01,2013-10-09 04:28:00,
2013-10-08 21:30:00,72.5,26.6,29.70,SW,216,2.0,6.0,18,0.00,,---,0.00,VWS V15.00,2013-10-09 04:30:00,
2013-10-08 21:33:00,72.5,26.6,29.70,SW,228,2.0,7.0,18,0.00,,---,0.00,VWS V14.01,2013-10-09 04:33:00,
2013-10-08 21:38:00,72.3,26.5,29.70,WSW,251,3.0,7.0,18,0.00,,---,0.00,VWS V14.01,2013-10-09 04:38:00,
2013-10-08 21:44:00,72.3,26.5,29.70,SW,215,2.0,7.0,18,0.00,,---,0.00,VWS V14.01,2013-10-09 04:44:00,
2013-10-08 21:49:00,72.2,26.4,29.70,WSW,240,2.0,7.0,18,0.00,,---,0.00,VWS V14.01,2013-10-09 04:49:00,
2013-10-08 21:54:00,72.1,27.6,29.70,SW,236,1.0,7.0,19,0.00,,---,0.00,VWS V14.01,2013-10-09 04:54:00,
2013-10-08 21:59:00,72.0,27.5,29.70,South,175,3.0,7.0,19,0.00,,---,0.00,VWS V14.01,2013-10-09 04:59:00,
2013-10-08 22:00:00,72.0,27.5,29.70,SW,225,2.0,7.0,19,0.00,,---,0.00,VWS V15.00,2013-10-09 05:00:00,
2013-10-08 22:04:00,72.0,27.5,29.70,SSW,210,0.0,4.0,19,0.00,,---,0.00,VWS V14.01,2013-10-09 05:04:00,
2013-10-08 22:09:00,71.9,27.4,29.70,WSW,238,0.0,4.0,19,0.00,,---,0.00,VWS V14.01,2013-10-09 05:09:00,
2013-10-08 22:14:00,71.6,27.2,29.70,SW,229,1.0,4.0,19,0.00,,---,0.00,VWS V14.01,2013-10-09 05:14:00,
2013-10-08 22:19:00,71.2,28.1,29.70,WSW,237,2.0,4.0,20,0.00,,---,0.00,VWS V14.01,2013-10-09 05:19:00,
2013-10-08 22:24:00,71.0,28.0,29.70,SW,224,5.0,5.0,20,0.00,,---,0.00,VWS V14.01,2013-10-09 05:24:00,
2013-10-08 22:29:00,71.2,28.1,29.70,ESE,121,3.0,7.0,20,0.00,,---,0.00,VWS V14.01,2013-10-09 05:29:00,
2013-10-08 22:30:00,71.2,26.9,29.70,SSW,195,3.0,7.0,19,0.00,,---,0.00,VWS V15.00,2013-10-09 05:30:00,
2013-10-08 22:34:00,71.6,27.2,29.70,South,172,7.0,8.0,19,0.00,,---,0.00,VWS V14.01,2013-10-09 05:34:00,
2013-10-08 22:39:00,71.9,27.4,29.70,SSW,201,3.0,8.0,19,0.00,,---,0.00,VWS V14.01,2013-10-09 05:39:00,
2013-10-08 22:44:00,72.0,27.5,29.70,SE,132,4.0,8.0,19,0.00,,---,0.00,VWS V14.01,2013-10-09 05:44:00,
2013-10-08 22:50:00,72.1,27.6,29.70,South,172,3.0,8.0,19,0.00,,---,0.00,VWS V14.01,2013-10-09 05:50:00,
2013-10-08 22:55:00,72.0,27.5,29.70,SSW,194,4.0,8.0,19,0.00,,---,0.00,VWS V14.01,2013-10-09 05:55:00,
2013-10-08 23:00:00,71.8,27.4,29.70,SE,128,3.0,8.0,19,0.00,,---,0.00,VWS V14.01,2013-10-09 06:00:00,
2013-10-08 23:05:00,71.5,27.1,29.70,SSW,195,0.0,6.0,19,0.00,,---,0.00,VWS V14.01,2013-10-09 06:05:00,
2013-10-08 23:10:00,71.1,26.8,29.70,WSW,240,1.0,6.0,19,0.00,,---,0.00,VWS V14.01,2013-10-09 06:10:00,
2013-10-08 23:15:00,70.8,26.5,29.70,SW,232,0.0,6.0,19,0.00,,---,0.00,VWS V14.01,2013-10-09 06:15:00,
2013-10-08 23:20:00,70.8,26.5,29.69,SW,226,2.0,6.0,19,0.00,,---,0.00,VWS V14.01,2013-10-09 06:20:00,
2013-10-08 23:25:00,70.8,26.5,29.70,SSW,205,2.0,6.0,19,0.00,,---,0.00,VWS V14.01,2013-10-09 06:25:00,
2013-10-08 23:30:00,70.9,26.6,29.70,SSE,166,5.0,7.0,19,0.00,,---,0.00,VWS V14.01,2013-10-09 06:30:00,
2013-10-08 23:35:00,71.2,26.9,29.70,SSW,201,3.0,7.0,19,0.00,,---,0.00,VWS V14.01,2013-10-09 06:35:00,
2013-10-08 23:40:00,71.2,28.1,29.69,SSW,205,6.0,8.0,20,0.00,,---,0.00,VWS V14.01,2013-10-09 06:40:00,
2013-10-08 23:46:00,71.2,28.1,29.69,South,188,3.0,8.0,20,0.00,,---,0.00,VWS V14.01,2013-10-09 06:46:00,
2013-10-08 23:51:00,71.3,27.0,29.69,WSW,248,3.0,8.0,19,0.00,,---,0.00,VWS V14.01,2013-10-09 06:51:00,
2013-10-08 23:56:00,71.0,28.0,29.69,SSW,209,2.0,8.0,20,0.00,,---,0.00,VWS V14.01,2013-10-09 06:56:00,